SUOMI NPP

Last updated on Thu Oct 30 2025 00:02:23 GMT+0000 (Coordinated Universal Time)

1 37849U 11061A 25302.49907204 .00000180 00000+0 10630-3 0 9998 2 37849 98.7697 240.2539 0000339 312.5383 47.5764 14.19536032725713
UTC large
Height (km)
Speed (km/s)
/
Latitude / Longitude
Inclination (degrees)
Orbital Period (minutes)
Azimuth
Elevation
Range (km)
Doppler Factor

Next 0 passes for location: London (51.5072 / 0.1276)

Sorry there are no passes over London.